User: anonymous   Login
Location: Unspecified
(0.0000°N, 0.0000°E)
Time: 23:46:57
(UTC+00:00)
Language:

METEOR-M - Orbit

View from above orbital plane
View from above orbital plane
View from above satellite
View from above satellite

Ground track
Ground track

The orbit data is extracted from the following two-line orbital elements,

1 35865U 09049A   15080.04424789 -.00000025  00000-0  76505-5 0  9997
2 35865 098.5102 123.5015 0002916 025.5934 334.5440 14.22001542285680
Epoch (UTC): 21 March 2015 01:03:43
Eccentricity: 0.0002916
inclination: 98.5102°
perigee height: 816 km
apogee height: 820 km
right ascension of ascending node: 123.5015°
argument of perigee: 25.5934°
revolutions per day: 14.22001542
mean anomaly at epoch: 334.5440°
orbit number at epoch: 28568

The dashed part of the orbit path shows where the satellite is in the earth's shadow,  

DLR